Year,Month,Day,Hour,Minute,Value (Times are PST for insolation in W/m^2)
2008,08,06,00,00,0.00
2008,08,06,00,01,0.00
2008,08,06,00,02,0.00
2008,08,06,00,03,0.00
2008,08,06,00,04,0.00
2008,08,06,00,05,0.00
2008,08,06,00,06,0.00
2008,08,06,00,07,0.00
2008,08,06,00,08,0.00
2008,08,06,00,09,0.00
2008,08,06,00,10,0.00
2008,08,06,00,11,0.00
2008,08,06,00,12,0.00
2008,08,06,00,13,0.00
2008,08,06,01,02,0.00
2008,08,06,01,03,0.00
2008,08,06,01,04,0.00
2008,08,06,01,05,0.00
2008,08,06,01,06,0.00
2008,08,06,01,07,0.00
2008,08,06,01,08,0.00
2008,08,06,01,09,0.00
2008,08,06,01,10,0.00
2008,08,06,01,11,0.00
2008,08,06,01,12,0.00
2008,08,06,01,13,0.00
2008,08,06,01,14,0.00
2008,08,06,01,15,0.00
2008,08,06,01,16,0.00
2008,08,06,01,17,0.00
2008,08,06,01,18,0.00
2008,08,06,01,19,0.00
2008,08,06,01,20,0.00
2008,08,06,01,21,0.00
2008,08,06,01,22,0.00
2008,08,06,01,23,0.00
2008,08,06,01,24,0.00
2008,08,06,01,25,0.00
2008,08,06,01,26,0.00
2008,08,06,01,27,0.00
2008,08,06,01,28,0.00
2008,08,06,01,29,0.00
2008,08,06,01,30,0.00
2008,08,06,01,31,0.00
2008,08,06,01,32,0.00
2008,08,06,01,33,0.00
2008,08,06,01,34,0.00
2008,08,06,01,35,0.00
2008,08,06,01,36,0.00
2008,08,06,01,37,0.00
2008,08,06,01,38,0.00
2008,08,06,01,39,0.00
2008,08,06,01,40,0.00
2008,08,06,01,41,0.00
2008,08,06,01,42,0.00
2008,08,06,01,43,0.00
2008,08,06,01,44,0.00
2008,08,06,01,45,0.00
2008,08,06,01,46,0.00
2008,08,06,01,47,0.00
2008,08,06,01,48,0.00
2008,08,06,01,49,0.00
2008,08,06,01,50,0.00
2008,08,06,01,51,0.00
2008,08,06,01,52,0.00
2008,08,06,01,53,0.00
2008,08,06,01,54,0.00
2008,08,06,01,55,0.00
2008,08,06,01,56,0.00
2008,08,06,01,57,0.00
2008,08,06,01,58,0.00
2008,08,06,01,59,0.00
2008,08,06,02,00,0.00
2008,08,06,02,01,0.00
2008,08,06,02,02,0.00
2008,08,06,02,03,0.00
2008,08,06,02,04,0.00
2008,08,06,02,05,0.00
2008,08,06,02,06,0.00
2008,08,06,02,07,0.00
2008,08,06,02,08,0.00
2008,08,06,02,09,0.00
2008,08,06,02,10,0.00
2008,08,06,02,11,0.00
2008,08,06,02,12,0.00
2008,08,06,02,13,0.00
2008,08,06,02,14,0.00
2008,08,06,02,15,0.00
2008,08,06,02,16,0.00
2008,08,06,02,17,0.00
2008,08,06,02,18,0.00
2008,08,06,02,19,0.00
2008,08,06,02,20,0.00
2008,08,06,02,21,0.00
2008,08,06,02,22,0.00
2008,08,06,02,23,0.00
2008,08,06,02,24,0.00
2008,08,06,02,25,0.00
2008,08,06,02,26,0.00
2008,08,06,02,27,0.00
2008,08,06,02,28,0.00
2008,08,06,02,29,0.00
2008,08,06,02,30,0.00
2008,08,06,02,31,0.00
2008,08,06,02,32,0.00
2008,08,06,02,33,0.00
2008,08,06,02,34,0.00
2008,08,06,02,35,0.00
2008,08,06,02,36,0.00
2008,08,06,02,37,0.00
2008,08,06,02,38,0.00
2008,08,06,02,39,0.00
2008,08,06,02,40,0.00
2008,08,06,02,41,0.00
2008,08,06,02,42,0.00
2008,08,06,02,43,0.00
2008,08,06,02,44,0.00
2008,08,06,02,45,0.00
2008,08,06,02,46,0.00
2008,08,06,02,47,0.00
2008,08,06,02,48,0.00
2008,08,06,02,49,0.00
2008,08,06,02,50,0.00
2008,08,06,02,51,0.00
2008,08,06,02,52,0.00
2008,08,06,02,53,0.00
2008,08,06,02,54,0.00
2008,08,06,02,55,0.00
2008,08,06,02,56,0.00
2008,08,06,02,57,0.00
2008,08,06,02,58,0.00
2008,08,06,02,59,0.00
2008,08,06,03,00,0.00
2008,08,06,03,01,0.00
2008,08,06,03,02,0.00
2008,08,06,03,03,0.00
2008,08,06,03,04,0.00
2008,08,06,03,05,0.00
2008,08,06,03,06,0.00
2008,08,06,03,07,0.00
2008,08,06,03,08,0.00
2008,08,06,03,09,0.00
2008,08,06,03,10,0.00
2008,08,06,03,11,0.00
2008,08,06,03,12,0.00
2008,08,06,03,13,0.00
2008,08,06,03,14,0.00
2008,08,06,03,15,0.00
2008,08,06,03,16,0.00
2008,08,06,03,17,0.00
2008,08,06,03,18,0.00
2008,08,06,03,19,0.00
2008,08,06,03,20,0.00
2008,08,06,03,21,0.00
2008,08,06,03,22,0.00
2008,08,06,03,23,0.00
2008,08,06,03,24,0.00
2008,08,06,03,25,0.00
2008,08,06,03,26,0.00
2008,08,06,03,27,0.00
2008,08,06,03,28,0.00
2008,08,06,03,29,0.00
2008,08,06,03,30,0.00
2008,08,06,03,31,0.00
2008,08,06,03,32,0.00
2008,08,06,03,33,0.00
2008,08,06,03,34,0.00
2008,08,06,03,35,0.00
2008,08,06,03,36,0.00
2008,08,06,03,37,0.00
2008,08,06,03,38,0.00
2008,08,06,03,39,0.00
2008,08,06,03,40,0.00
2008,08,06,03,41,0.00
2008,08,06,03,42,0.00
2008,08,06,03,43,0.00
2008,08,06,03,44,0.00
2008,08,06,03,45,0.00
2008,08,06,03,46,0.00
2008,08,06,03,47,0.00
2008,08,06,03,48,0.00
2008,08,06,03,49,0.00
2008,08,06,03,50,0.00
2008,08,06,03,51,0.00
2008,08,06,03,52,0.00
2008,08,06,03,53,0.00
2008,08,06,03,54,0.00
2008,08,06,03,55,0.00
2008,08,06,03,56,0.00
2008,08,06,03,57,0.00
2008,08,06,03,58,0.00
2008,08,06,03,59,0.00
2008,08,06,04,00,0.00
2008,08,06,04,01,0.00
2008,08,06,04,02,0.00
2008,08,06,04,03,0.00
2008,08,06,04,04,0.00
2008,08,06,04,05,0.00
2008,08,06,04,06,0.00
2008,08,06,04,07,0.00
2008,08,06,04,08,0.00
2008,08,06,04,09,0.00
2008,08,06,04,10,0.00
2008,08,06,04,11,0.00
2008,08,06,04,12,0.00
2008,08,06,04,13,0.00
2008,08,06,04,14,0.00
2008,08,06,04,15,0.00
2008,08,06,04,16,0.00
2008,08,06,04,17,0.00
2008,08,06,04,18,0.00
2008,08,06,04,19,0.00
2008,08,06,04,20,0.00
2008,08,06,04,21,0.00
2008,08,06,04,22,0.00
2008,08,06,04,23,0.00
2008,08,06,04,24,0.00
2008,08,06,04,25,0.00
2008,08,06,04,26,0.00
2008,08,06,04,27,0.00
2008,08,06,04,28,0.00
2008,08,06,04,29,0.00
2008,08,06,04,30,0.00
2008,08,06,04,31,0.00
2008,08,06,04,32,0.00
2008,08,06,04,33,0.00
2008,08,06,04,34,0.00
2008,08,06,04,35,0.00
2008,08,06,04,36,0.00
2008,08,06,04,37,0.00
2008,08,06,04,38,0.00
2008,08,06,04,39,0.00
2008,08,06,04,40,0.00
2008,08,06,04,41,0.00
2008,08,06,04,42,0.00
2008,08,06,04,43,0.00
2008,08,06,04,44,0.00
2008,08,06,04,45,0.00
2008,08,06,04,46,0.00
2008,08,06,04,47,0.00
2008,08,06,04,48,0.00
2008,08,06,04,49,0.00
2008,08,06,04,50,0.00
2008,08,06,04,51,0.00
2008,08,06,04,52,0.00
2008,08,06,04,53,0.00
2008,08,06,04,54,0.00
2008,08,06,04,55,0.00
2008,08,06,04,56,0.00
2008,08,06,04,57,0.00
2008,08,06,04,58,0.00
2008,08,06,04,59,0.00
2008,08,06,05,00,0.00
2008,08,06,05,01,0.00
2008,08,06,05,02,0.00
2008,08,06,05,03,0.00
2008,08,06,05,04,0.00
2008,08,06,05,05,0.00
2008,08,06,05,06,0.00
2008,08,06,05,07,0.00
2008,08,06,05,08,0.00
2008,08,06,05,09,0.00
2008,08,06,05,10,0.00
2008,08,06,05,11,0.00
2008,08,06,05,12,0.00
2008,08,06,05,13,0.00
2008,08,06,05,14,0.00
2008,08,06,05,15,0.00
2008,08,06,05,16,0.00
2008,08,06,05,17,0.00
2008,08,06,05,18,0.00
2008,08,06,05,19,0.00
2008,08,06,05,20,0.00
2008,08,06,05,21,0.00
2008,08,06,05,22,0.00
2008,08,06,05,23,0.00
2008,08,06,05,24,0.00
2008,08,06,05,25,0.00
2008,08,06,05,26,0.00
2008,08,06,05,27,0.00
2008,08,06,05,28,0.00
2008,08,06,05,29,0.00
2008,08,06,05,30,0.00
2008,08,06,05,31,0.00
2008,08,06,05,32,0.00
2008,08,06,05,33,0.00
2008,08,06,05,34,0.00
2008,08,06,05,35,0.00
2008,08,06,05,36,0.00
2008,08,06,05,37,0.00
2008,08,06,05,38,0.00
2008,08,06,05,39,0.00
2008,08,06,05,40,0.00
2008,08,06,05,41,0.00
2008,08,06,05,42,0.00
2008,08,06,05,43,0.00
2008,08,06,05,44,0.00
2008,08,06,05,45,0.00
2008,08,06,05,46,0.00
2008,08,06,05,47,0.00
2008,08,06,05,48,0.00
2008,08,06,05,49,0.00
2008,08,06,05,50,0.00
2008,08,06,05,51,0.00
2008,08,06,05,52,0.00
2008,08,06,05,53,0.00
2008,08,06,05,54,0.00
2008,08,06,05,55,0.00
2008,08,06,05,56,0.00
2008,08,06,05,57,0.00
2008,08,06,05,58,0.00
2008,08,06,05,59,0.00
2008,08,06,06,00,0.00
2008,08,06,06,01,0.00
2008,08,06,06,02,0.00
2008,08,06,06,03,0.00
2008,08,06,06,04,5.00
2008,08,06,06,05,5.00
2008,08,06,06,06,5.00
2008,08,06,06,07,5.00
2008,08,06,06,08,5.00
2008,08,06,06,09,6.20
2008,08,06,06,10,7.00
2008,08,06,06,11,7.00
2008,08,06,06,12,7.00
2008,08,06,06,13,8.90
2008,08,06,06,14,9.00
2008,08,06,06,15,9.00
2008,08,06,06,16,9.80
2008,08,06,06,17,11.00
2008,08,06,06,18,11.00
2008,08,06,06,19,11.00
2008,08,06,06,20,11.80
2008,08,06,06,21,12.00
2008,08,06,06,22,12.00
2008,08,06,06,23,12.40
2008,08,06,06,24,14.00
2008,08,06,06,25,14.00
2008,08,06,06,26,14.00
2008,08,06,06,27,14.00
2008,08,06,06,28,15.60
2008,08,06,06,29,16.00
2008,08,06,06,30,16.10
2008,08,06,06,31,18.00
2008,08,06,06,32,18.00
2008,08,06,06,33,18.00
2008,08,06,06,34,18.50
2008,08,06,06,35,19.00
2008,08,06,06,36,19.00
2008,08,06,06,37,20.70
2008,08,06,06,38,21.00
2008,08,06,06,39,21.00
2008,08,06,06,40,21.40
2008,08,06,06,41,23.00
2008,08,06,06,42,23.00
2008,08,06,06,43,23.00
2008,08,06,06,44,24.30
2008,08,06,06,45,25.00
2008,08,06,06,46,25.00
2008,08,06,06,47,25.00
2008,08,06,06,48,25.20
2008,08,06,06,49,26.00
2008,08,06,06,50,26.00
2008,08,06,06,51,26.00
2008,08,06,06,52,27.20
2008,08,06,06,53,28.00
2008,08,06,06,54,28.00
2008,08,06,06,55,28.00
2008,08,06,06,56,28.20
2008,08,06,06,57,30.00
2008,08,06,06,58,30.00
2008,08,06,06,59,30.00
2008,08,06,07,00,31.10
2008,08,06,07,01,32.00
2008,08,06,07,02,32.00
2008,08,06,07,03,32.00
2008,08,06,07,04,32.00
2008,08,06,07,05,33.00
2008,08,06,07,06,33.00
2008,08,06,07,07,33.00
2008,08,06,07,08,33.00
2008,08,06,07,09,34.20
2008,08,06,07,10,35.00
2008,08,06,07,11,35.00
2008,08,06,07,12,35.00
2008,08,06,07,13,35.10
2008,08,06,07,14,37.00
2008,08,06,07,15,37.50
2008,08,06,07,16,38.30
2008,08,06,07,17,37.90
2008,08,06,07,18,39.00
2008,08,06,07,19,39.00
2008,08,06,07,20,39.00
2008,08,06,07,21,39.00
2008,08,06,07,22,39.10
2008,08,06,07,23,40.00
2008,08,06,07,24,40.00
2008,08,06,07,25,40.00
2008,08,06,07,26,40.00
2008,08,06,07,27,40.00
2008,08,06,07,28,41.50
2008,08,06,07,29,42.00
2008,08,06,07,30,42.00
2008,08,06,07,31,42.00
2008,08,06,07,32,42.00
2008,08,06,07,33,42.00
2008,08,06,07,34,42.80
2008,08,06,07,35,44.00
2008,08,06,07,36,44.00
2008,08,06,07,37,44.00
2008,08,06,07,38,44.00
2008,08,06,07,39,44.00
2008,08,06,07,40,44.40
2008,08,06,07,41,46.00
2008,08,06,07,42,46.00
2008,08,06,07,43,46.00
2008,08,06,07,44,46.00
2008,08,06,07,45,46.00
2008,08,06,07,46,46.80
2008,08,06,07,47,47.00
2008,08,06,07,48,47.00
2008,08,06,07,49,47.00
2008,08,06,07,50,47.00
2008,08,06,07,51,47.00
2008,08,06,07,52,47.00
2008,08,06,07,53,48.30
2008,08,06,07,54,49.00
2008,08,06,07,55,49.00
2008,08,06,07,56,49.00
2008,08,06,07,57,49.00
2008,08,06,07,58,49.00
2008,08,06,07,59,49.00
2008,08,06,08,00,49.00
2008,08,06,08,01,50.20
2008,08,06,08,02,51.00
2008,08,06,08,03,51.00
2008,08,06,08,04,51.00
2008,08,06,08,05,51.00
2008,08,06,08,06,51.00
2008,08,06,08,07,51.00
2008,08,06,08,08,51.80
2008,08,06,08,09,53.00
2008,08,06,08,10,58.70
2008,08,06,08,11,62.70
2008,08,06,08,12,58.80
2008,08,06,08,13,54.30
2008,08,06,08,14,53.00
2008,08,06,08,15,53.20
2008,08,06,08,16,53.60
2008,08,06,08,17,53.00
2008,08,06,08,18,53.00
2008,08,06,08,19,53.70
2008,08,06,08,20,54.00
2008,08,06,08,21,53.20
2008,08,06,08,22,53.90
2008,08,06,08,23,54.00
2008,08,06,08,24,54.00
2008,08,06,08,25,54.00
2008,08,06,08,26,54.00
2008,08,06,08,27,54.00
2008,08,06,08,28,54.00
2008,08,06,08,29,54.00
2008,08,06,08,30,54.00
2008,08,06,08,31,54.20
2008,08,06,08,32,56.40
2008,08,06,08,33,57.40
2008,08,06,08,34,56.00
2008,08,06,08,35,56.00
2008,08,06,08,36,56.00
2008,08,06,08,37,56.00
2008,08,06,08,38,56.00
2008,08,06,08,39,56.10
2008,08,06,08,40,58.00
2008,08,06,08,41,58.00
2008,08,06,08,42,58.60
2008,08,06,08,43,59.10
2008,08,06,08,44,58.00
2008,08,06,08,45,58.00
2008,08,06,08,46,59.60
2008,08,06,08,47,60.00
2008,08,06,08,48,60.00
2008,08,06,08,49,60.00
2008,08,06,08,50,60.00
2008,08,06,08,51,60.00
2008,08,06,08,52,61.10
2008,08,06,08,53,62.00
2008,08,06,08,54,62.00
2008,08,06,08,55,62.00
2008,08,06,08,56,62.90
2008,08,06,08,57,69.50
2008,08,06,08,58,105.90
2008,08,06,08,59,162.00
2008,08,06,09,00,162.00
2008,08,06,09,01,162.00
2008,08,06,09,02,103.90
2008,08,06,09,03,77.40
2008,08,06,09,04,74.30
2008,08,06,09,05,67.00
2008,08,06,09,06,63.00
2008,08,06,09,07,63.00
2008,08,06,09,08,63.70
2008,08,06,09,09,65.00
2008,08,06,09,10,65.00
2008,08,06,09,11,65.00
2008,08,06,09,12,66.60
2008,08,06,09,13,67.00
2008,08,06,09,14,65.20
2008,08,06,09,15,68.90
2008,08,06,09,16,74.20
2008,08,06,09,17,70.30
2008,08,06,09,18,79.00
2008,08,06,09,19,103.10
2008,08,06,09,20,115.30
2008,08,06,09,21,94.10
2008,08,06,09,22,90.00
2008,08,06,09,23,264.90
2008,08,06,09,24,264.00
2008,08,06,09,25,264.00
2008,08,06,09,26,264.00
2008,08,06,09,27,209.00
2008,08,06,09,28,199.10
2008,08,06,09,29,160.90
2008,08,06,09,30,111.20
2008,08,06,09,31,90.10
2008,08,06,09,32,76.40
2008,08,06,09,33,72.40
2008,08,06,09,34,69.00
2008,08,06,09,35,69.00
2008,08,06,09,36,69.00
2008,08,06,09,37,69.00
2008,08,06,09,38,73.20
2008,08,06,09,39,75.90
2008,08,06,09,40,80.80
2008,08,06,09,41,80.80
2008,08,06,09,42,91.80
2008,08,06,09,43,96.20
2008,08,06,09,44,86.80
2008,08,06,09,45,76.10
2008,08,06,09,46,73.50
2008,08,06,09,47,79.90
2008,08,06,09,48,93.10
2008,08,06,09,49,85.70
2008,08,06,09,50,103.70
2008,08,06,09,51,128.00
2008,08,06,09,52,236.50
2008,08,06,09,53,306.10
2008,08,06,09,54,327.80
2008,08,06,09,55,433.20
2008,08,06,09,56,508.60
2008,08,06,09,57,515.90
2008,08,06,09,58,524.40
2008,08,06,09,59,526.00
2008,08,06,10,00,528.90
2008,08,06,10,01,533.00
2008,08,06,10,02,533.60
2008,08,06,10,03,534.00
2008,08,06,10,04,535.70
2008,08,06,10,05,537.90
2008,08,06,10,06,541.00
2008,08,06,10,07,541.90
2008,08,06,10,08,545.60
2008,08,06,10,09,547.40
2008,08,06,10,10,550.10
2008,08,06,10,11,553.40
2008,08,06,10,12,554.80
2008,08,06,10,13,556.80
2008,08,06,10,14,558.80
2008,08,06,10,15,561.30
2008,08,06,10,16,563.30
2008,08,06,10,17,564.80
2008,08,06,10,18,566.90
2008,08,06,10,19,568.00
2008,08,06,10,20,569.30
2008,08,06,10,21,570.00
2008,08,06,10,22,572.70
2008,08,06,10,23,573.20
2008,08,06,10,24,575.30
2008,08,06,10,25,577.20
2008,08,06,10,26,578.80
2008,08,06,10,27,582.00
2008,08,06,10,28,584.50
2008,08,06,10,29,586.40
2008,08,06,10,30,590.40
2008,08,06,10,31,591.10
2008,08,06,10,32,592.20
2008,08,06,10,33,594.40
2008,08,06,10,34,596.00
2008,08,06,10,35,596.90
2008,08,06,10,36,598.00
2008,08,06,10,37,601.40
2008,08,06,10,38,604.60
2008,08,06,10,39,605.90
2008,08,06,10,40,608.10
2008,08,06,10,41,610.30
2008,08,06,10,42,612.30
2008,08,06,10,43,613.00
2008,08,06,10,44,615.00
2008,08,06,10,45,617.00
2008,08,06,10,46,618.40
2008,08,06,10,47,620.50
2008,08,06,10,48,621.80
2008,08,06,10,49,623.70
2008,08,06,10,50,622.80
2008,08,06,10,51,627.60
2008,08,06,10,52,631.00
2008,08,06,10,53,631.00
2008,08,06,10,54,633.50
2008,08,06,10,55,637.20
2008,08,06,10,56,638.00
2008,08,06,10,57,641.80
2008,08,06,10,58,642.50
2008,08,06,10,59,647.00
2008,08,06,11,00,647.70
2008,08,06,11,01,649.50
2008,08,06,11,02,651.00
2008,08,06,11,03,653.40
2008,08,06,11,04,654.00
2008,08,06,11,05,654.00
2008,08,06,11,06,657.00
2008,08,06,11,07,658.30
2008,08,06,11,08,663.30
2008,08,06,11,09,664.00
2008,08,06,11,10,665.10
2008,08,06,11,11,668.50
2008,08,06,11,12,670.70
2008,08,06,11,13,672.70
2008,08,06,11,14,673.00
2008,08,06,11,15,673.60
2008,08,06,11,16,679.20
2008,08,06,11,17,680.00
2008,08,06,11,18,680.80
2008,08,06,11,19,683.10
2008,08,06,11,20,685.40
2008,08,06,11,21,688.30
2008,08,06,11,22,689.00
2008,08,06,11,23,691.00
2008,08,06,11,24,693.00
2008,08,06,11,25,693.00
2008,08,06,11,26,692.30
2008,08,06,11,27,691.90
2008,08,06,11,28,694.70
2008,08,06,11,29,697.30
2008,08,06,11,30,701.90
2008,08,06,11,31,700.20
2008,08,06,11,32,701.00
2008,08,06,11,33,701.40
2008,08,06,11,34,702.40
2008,08,06,11,35,702.60
2008,08,06,11,36,706.50
2008,08,06,11,37,706.10
2008,08,06,11,38,707.10
2008,08,06,11,39,707.20
2008,08,06,11,40,709.80
2008,08,06,11,41,710.20
2008,08,06,11,42,712.50
2008,08,06,11,43,714.90
2008,08,06,11,44,717.00
2008,08,06,11,45,719.10
2008,08,06,11,46,721.00
2008,08,06,11,47,721.80
2008,08,06,11,48,722.00
2008,08,06,11,49,727.80
2008,08,06,11,50,724.30
2008,08,06,11,51,726.50
2008,08,06,11,52,728.40
2008,08,06,11,53,729.00
2008,08,06,11,54,728.40
2008,08,06,11,55,728.70
2008,08,06,11,56,729.00
2008,08,06,11,57,732.80
2008,08,06,11,58,729.40
2008,08,06,11,59,733.40
2008,08,06,12,00,735.90
2008,08,06,12,01,738.80
2008,08,06,12,02,738.90
2008,08,06,12,03,737.40
2008,08,06,12,04,739.20
2008,08,06,12,05,738.40
2008,08,06,12,06,741.80
2008,08,06,12,07,742.00
2008,08,06,12,08,741.50
2008,08,06,12,09,741.50
2008,08,06,12,10,744.00
2008,08,06,12,11,744.00
2008,08,06,12,12,747.40
2008,08,06,12,13,750.60
2008,08,06,12,14,751.00
2008,08,06,12,15,749.00
2008,08,06,12,16,749.00
2008,08,06,12,17,749.60
2008,08,06,12,18,751.40
2008,08,06,12,19,752.00
2008,08,06,12,20,753.20
2008,08,06,12,21,754.00
2008,08,06,12,22,754.00
2008,08,06,12,23,752.10
2008,08,06,12,24,752.20
2008,08,06,12,25,753.50
2008,08,06,12,26,752.70
2008,08,06,12,27,754.90
2008,08,06,12,28,756.00
2008,08,06,12,29,756.00
2008,08,06,12,30,757.60
2008,08,06,12,31,758.00
2008,08,06,12,32,759.10
2008,08,06,12,33,761.60
2008,08,06,12,34,764.50
2008,08,06,12,35,763.70
2008,08,06,12,36,767.40
2008,08,06,12,37,767.10
2008,08,06,12,38,767.10
2008,08,06,12,39,768.00
2008,08,06,12,40,772.50
2008,08,06,12,41,772.00
2008,08,06,12,42,772.00
2008,08,06,12,43,772.30
2008,08,06,12,44,773.00
2008,08,06,12,45,775.10
2008,08,06,12,46,774.50
2008,08,06,12,47,777.40
2008,08,06,12,48,773.90
2008,08,06,12,49,774.90
2008,08,06,12,50,777.00
2008,08,06,12,51,776.50
2008,08,06,12,52,775.00
2008,08,06,12,53,775.90
2008,08,06,12,54,777.00
2008,08,06,12,55,777.00
2008,08,06,12,56,779.40
2008,08,06,12,57,785.40
2008,08,06,12,58,788.10
2008,08,06,12,59,789.00
2008,08,06,13,00,788.70
2008,08,06,13,01,788.40
2008,08,06,13,02,790.00
2008,08,06,13,03,789.30
2008,08,06,13,04,791.20
2008,08,06,13,05,791.30
2008,08,06,13,06,792.70
2008,08,06,13,07,793.10
2008,08,06,13,08,795.20
2008,08,06,13,09,795.70
2008,08,06,13,10,795.00
2008,08,06,13,11,792.90
2008,08,06,13,12,794.10
2008,08,06,13,13,797.40
2008,08,06,13,14,798.00
2008,08,06,13,15,798.20
2008,08,06,13,16,801.70
2008,08,06,13,17,799.50
2008,08,06,13,18,798.00
2008,08,06,13,19,799.70
2008,08,06,13,20,800.90
2008,08,06,13,21,797.40
2008,08,06,13,22,796.00
2008,08,06,13,23,796.00
2008,08,06,13,24,797.80
2008,08,06,13,25,796.00
2008,08,06,13,26,796.50
2008,08,06,13,27,799.40
2008,08,06,13,28,802.00
2008,08,06,13,29,802.00
2008,08,06,13,30,800.60
2008,08,06,13,31,800.00
2008,08,06,13,32,800.00
2008,08,06,13,33,798.30
2008,08,06,13,34,800.00
2008,08,06,13,35,798.50
2008,08,06,13,36,797.90
2008,08,06,13,37,798.90
2008,08,06,13,38,796.60
2008,08,06,13,39,797.60
2008,08,06,13,40,799.80
2008,08,06,13,41,799.90
2008,08,06,13,42,798.00
2008,08,06,13,43,797.50
2008,08,06,13,44,797.40
2008,08,06,13,45,800.00
2008,08,06,13,46,800.00
2008,08,06,13,47,801.30
2008,08,06,13,48,797.00
2008,08,06,13,49,796.00
2008,08,06,13,50,794.90
2008,08,06,13,51,793.00
2008,08,06,13,52,793.00
2008,08,06,13,53,792.20
2008,08,06,13,54,792.10
2008,08,06,13,55,791.70
2008,08,06,13,56,791.00
2008,08,06,13,57,789.30
2008,08,06,13,58,794.40
2008,08,06,13,59,790.80
2008,08,06,14,00,789.50
2008,08,06,14,01,790.30
2008,08,06,14,02,789.90
2008,08,06,14,03,789.30
2008,08,06,14,04,788.00
2008,08,06,14,05,790.20
2008,08,06,14,06,792.80
2008,08,06,14,07,786.20
2008,08,06,14,08,788.20
2008,08,06,14,09,789.00
2008,08,06,14,10,789.70
2008,08,06,14,11,792.10
2008,08,06,14,12,794.30
2008,08,06,14,13,795.00
2008,08,06,14,14,791.60
2008,08,06,14,15,791.00
2008,08,06,14,16,791.00
2008,08,06,14,17,791.00
2008,08,06,14,18,792.20
2008,08,06,14,19,794.20
2008,08,06,14,20,793.00
2008,08,06,14,21,790.50
2008,08,06,14,22,791.90
2008,08,06,14,23,793.00
2008,08,06,14,24,794.50
2008,08,06,14,25,786.00
2008,08,06,14,26,786.80
2008,08,06,14,27,787.90
2008,08,06,14,28,784.10
2008,08,06,14,29,782.00
2008,08,06,14,30,780.70
2008,08,06,14,31,780.00
2008,08,06,14,32,779.20
2008,08,06,14,33,779.70
2008,08,06,14,34,776.40
2008,08,06,14,35,773.00
2008,08,06,14,36,772.60
2008,08,06,14,37,771.00
2008,08,06,14,38,767.50
2008,08,06,14,39,766.00
2008,08,06,14,40,760.10
2008,08,06,14,41,758.10
2008,08,06,14,42,751.30
2008,08,06,14,43,745.00
2008,08,06,14,44,745.00
2008,08,06,14,45,742.90
2008,08,06,14,46,738.40
2008,08,06,14,47,737.70
2008,08,06,14,48,741.20
2008,08,06,14,49,740.20
2008,08,06,14,50,739.60
2008,08,06,14,51,733.80
2008,08,06,14,52,739.60
2008,08,06,14,53,741.60
2008,08,06,14,54,737.50
2008,08,06,14,55,738.70
2008,08,06,14,56,740.00
2008,08,06,14,57,737.50
2008,08,06,14,58,733.20
2008,08,06,14,59,729.40
2008,08,06,15,00,732.60
2008,08,06,15,01,731.60
2008,08,06,15,02,730.90
2008,08,06,15,03,728.50
2008,08,06,15,04,727.10
2008,08,06,15,05,728.20
2008,08,06,15,06,729.00
2008,08,06,15,07,729.00
2008,08,06,15,08,728.50
2008,08,06,15,09,726.00
2008,08,06,15,10,724.50
2008,08,06,15,11,722.00
2008,08,06,15,12,722.00
2008,08,06,15,13,722.00
2008,08,06,15,14,722.00
2008,08,06,15,15,722.00
2008,08,06,15,16,720.60
2008,08,06,15,17,716.60
2008,08,06,15,18,714.10
2008,08,06,15,19,710.20
2008,08,06,15,20,708.50
2008,08,06,15,21,712.50
2008,08,06,15,22,714.70
2008,08,06,15,23,715.00
2008,08,06,15,24,710.30
2008,08,06,15,25,709.00
2008,08,06,15,26,702.30
2008,08,06,15,27,697.90
2008,08,06,15,28,690.10
2008,08,06,15,29,682.80
2008,08,06,15,30,681.20
2008,08,06,15,31,682.00
2008,08,06,15,32,683.60
2008,08,06,15,33,678.90
2008,08,06,15,34,677.30
2008,08,06,15,35,679.00
2008,08,06,15,36,679.40
2008,08,06,15,37,677.60
2008,08,06,15,38,672.20
2008,08,06,15,39,670.70
2008,08,06,15,40,670.20
2008,08,06,15,41,668.20
2008,08,06,15,42,664.40
2008,08,06,15,43,665.60
2008,08,06,15,44,663.10
2008,08,06,15,45,663.10
2008,08,06,15,46,665.00
2008,08,06,15,47,661.10
2008,08,06,15,48,657.50
2008,08,06,15,49,657.00
2008,08,06,15,50,652.20
2008,08,06,15,51,649.10
2008,08,06,15,52,642.60
2008,08,06,15,53,642.40
2008,08,06,15,54,637.20
2008,08,06,15,55,637.20
2008,08,06,15,56,636.10
2008,08,06,15,57,638.80
2008,08,06,15,58,636.40
2008,08,06,15,59,637.60
2008,08,06,16,00,629.60
2008,08,06,16,01,621.70
2008,08,06,16,02,621.00
2008,08,06,16,03,621.00
2008,08,06,16,04,619.80
2008,08,06,16,05,619.00
2008,08,06,16,06,617.30
2008,08,06,16,07,618.70
2008,08,06,16,08,613.50
2008,08,06,16,09,614.70
2008,08,06,16,10,611.50
2008,08,06,16,11,608.80
2008,08,06,16,12,610.00
2008,08,06,16,13,608.80
2008,08,06,16,14,604.50
2008,08,06,16,15,599.70
2008,08,06,16,16,596.30
2008,08,06,16,17,595.30
2008,08,06,16,18,590.50
2008,08,06,16,19,589.00
2008,08,06,16,20,588.10
2008,08,06,16,21,585.90
2008,08,06,16,22,585.00
2008,08,06,16,23,585.00
2008,08,06,16,24,585.00
2008,08,06,16,25,577.70
2008,08,06,16,26,572.50
2008,08,06,16,27,568.20
2008,08,06,16,28,563.00
2008,08,06,16,29,559.80
2008,08,06,16,30,555.70
2008,08,06,16,31,555.00
2008,08,06,16,32,554.20
2008,08,06,16,33,552.30
2008,08,06,16,34,546.80
2008,08,06,16,35,544.60
2008,08,06,16,36,541.40
2008,08,06,16,37,537.20
2008,08,06,16,38,534.90
2008,08,06,16,39,534.00
2008,08,06,16,40,534.00
2008,08,06,16,41,534.00
2008,08,06,16,42,534.00
2008,08,06,16,43,533.40
2008,08,06,16,44,528.50
2008,08,06,16,45,526.60
2008,08,06,16,46,526.00
2008,08,06,16,47,523.70
2008,08,06,16,48,520.60
2008,08,06,16,49,520.00
2008,08,06,16,50,519.10
2008,08,06,16,51,514.70
2008,08,06,16,52,511.70
2008,08,06,16,53,509.00
2008,08,06,16,54,504.70
2008,08,06,16,55,503.00
2008,08,06,16,56,503.00
2008,08,06,16,57,500.20
2008,08,06,16,58,497.30
2008,08,06,16,59,497.00
2008,08,06,17,00,496.00
2008,08,06,17,01,496.00
2008,08,06,17,02,496.30
2008,08,06,17,03,496.60
2008,08,06,17,04,496.00
2008,08,06,17,05,493.60
2008,08,06,17,06,492.00
2008,08,06,17,07,487.50
2008,08,06,17,08,488.80
2008,08,06,17,09,484.70
2008,08,06,17,10,481.40
2008,08,06,17,11,477.20
2008,08,06,17,12,476.00
2008,08,06,17,13,472.90
2008,08,06,17,14,469.00
2008,08,06,17,15,468.00
2008,08,06,17,16,468.00
2008,08,06,17,17,462.20
2008,08,06,17,18,461.00
2008,08,06,17,19,459.70
2008,08,06,17,20,454.90
2008,08,06,17,21,449.90
2008,08,06,17,22,444.90
2008,08,06,17,23,441.60
2008,08,06,17,24,439.30
2008,08,06,17,25,438.10
2008,08,06,17,26,438.80
2008,08,06,17,27,438.00
2008,08,06,17,28,437.30
2008,08,06,17,29,436.00
2008,08,06,17,30,434.80
2008,08,06,17,31,431.90
2008,08,06,17,32,427.80
2008,08,06,17,33,428.80
2008,08,06,17,34,428.70
2008,08,06,17,35,423.40
2008,08,06,17,36,419.20
2008,08,06,17,37,415.50
2008,08,06,17,38,412.10
2008,08,06,17,39,409.10
2008,08,06,17,40,406.60
2008,08,06,17,41,404.30
2008,08,06,17,42,401.20
2008,08,06,17,43,396.90
2008,08,06,17,44,395.60
2008,08,06,17,45,392.70
2008,08,06,17,46,389.20
2008,08,06,17,47,385.10
2008,08,06,17,48,381.70
2008,08,06,17,49,378.80
2008,08,06,17,50,376.30
2008,08,06,17,51,374.00
2008,08,06,17,52,374.30
2008,08,06,17,53,375.50
2008,08,06,17,54,374.00
2008,08,06,17,55,374.00
2008,08,06,17,56,374.00
2008,08,06,17,57,374.00
2008,08,06,17,58,374.00
2008,08,06,17,59,373.10